Volver al catálogo

ARIANE 5 R/B

ActivoGTO
NORAD 28904·ROCKET BODY·🇫🇷 France

Lanzado Nov 16, 2005 desde Guiana Space Centre

Loading…

TLE

EnvejeciendoSource: Space-Track

Época: Sep 14, 2026, 12:59 UTC

1 28904U 05046C   26257.54142035 -.00000043  00000-0  23493-3 0  9996
2 28904   7.3318  67.1754 7189506  47.4053 354.2038  2.30001351174334

Sigue ARIANE 5 R/B en tiempo real con AllMySat

Download on the App Store